User: anonymous   Login
Location: Unspecified
(0.0000°N, 0.0000°E)
Time: 17:59:42
(UTC+02:00)
Language:

Cosmos 540 Rocket - Orbit

View from above orbital plane
View from above orbital plane
View from above satellite
View from above satellite

Ground track
Ground track

The orbit data is extracted from the following two-line orbital elements,

1 06324U 72104B   15115.16753679  .00000386  00000-0  12260-3 0  9997
2 06324 074.0750 118.7131 0007848 102.3249 257.8787 14.43163080222460
Epoch (UTC): 25 April 2015 04:01:15
Eccentricity: 0.0007848
inclination: 74.0750°
perigee height: 742 km
apogee height: 753 km
right ascension of ascending node: 118.7131°
argument of perigee: 102.3249°
revolutions per day: 14.43163080
mean anomaly at epoch: 257.8787°
orbit number at epoch: 22246

The dashed part of the orbit path shows where the satellite is in the earth's shadow,  

DLR